Location: Unspecified
(0.0000°N, 0.0000°E)
Time: 14:12:18
(UTC+00:00)

A-11 Canister half - Pass Details

Date: 22 May 2026
Orbit: 1524 x 1684 km, 47.3° (Epoch: 7 June)

Event Time Altitude Azimuth Distance (km) Brightness Sun altitude
Rises 10:46:18 0° 204° (SSW) 4,713 11.3 63.3°
Reaches altitude 10° 10:49:42 10° 196° (SSW) 3,713 10.9 63.8°
Maximum altitude 10:58:09 38° 131° (SE) 2,171 10.4 65.0°
Drops below altitude 10° 11:06:30 10° 66° (ENE) 3,684 11.5 66.2°
Sets 11:09:49 0° 58° (ENE) 4,673 11.8 66.6°
